{"data":{"norad_id":68989,"epoch":"2026-05-25T03:31:58.569024Z","epoch_age_seconds":65751,"freshness":"FRESH","line1":"1 68989U 26100K   26145.14720566  .00001668  00000+0  17528-3 0  9994","line2":"2 68989  97.7419  43.0033 0005319 198.1775 161.9254 14.90765767  3269","mean_motion":14.90765767,"eccentricity":0.0005319,"inclination_deg":97.7419,"raan_deg":43.0033,"arg_perigee_deg":198.1775,"mean_anomaly_deg":161.9254,"bstar":0.00017528,"rev_number":326,"period_min":96.594651680112,"perigee_km":591.83720892243,"apogee_km":599.25581344163,"semimajor_km":6973.683511182,"source":"CELESTRAK","updated_at":"2026-05-25T13:38:08.808937Z"}}